Weather History for Mather AFB, CA

Change the Weather History Date:

Thursday, May 2, 2013

  Actual Average Record
Temperature  
Mean Temperature 72 °F -  
Max Temperature 89 °F 73 °F 93 °F (2004)
Min Temperature 55 °F 45 °F 41 °F (2008)
Cooling Degree Days 7    
Growing Degree Days 22 (Base 50)    
Moisture  
Dew Point 27 °F    
Average Humidity 22    
Maximum Humidity 37    
Minimum Humidity 8    
Precipitation  
Precipitation 0.00 in - - ()
Sea Level Pressure  
Sea Level Pressure 30.11 in    
Wind  
Wind Speed 5 mph (NW)    
Max Wind Speed 10 mph    
Max Gust Speed -    
Visibility 10 miles    
Events      
Averages and records for this station are not official NWS values.
T = Trace of Precipitation, MM = Missing Value Source: NWS Daily Summary

Daily Weather History Graph

Daily Weather History Graph

Search for Another Location

Airport:

Trip Planner

Search our weather history database for the weather conditions in past years. The results will help you decide how hot, cold, wet, or windy it might be!

Date:

Astronomy

May. 02, 2013 Rise Set
Actual Time 6:06 AM PDT 7:58 PM PDT
Civil Twilight 5:37 AM PDT 8:27 PM PDT
Nautical Twilight 5:02 AM PDT 9:02 PM PDT
Astronomical Twilight 4:25 AM PDT 9:39 PM PDT
Moon 1:51 AM PDT (5/2) 12:58 PM PDT (5/2)
Length of Visible Light 14h 49m
Length of Day
13h 51m
Waning Gibbous, 46% of the Moon is Illuminated
May 2
Waning Gibbous
May 9
New
May 17
First Quarter
May 24
Full
May 31
Last Quarter

Hourly Weather History & Observations

Time (PDT) Temp. Dew Point Humidity Pressure Visibility Wind Dir Wind Speed Gust Speed Precip Events Conditions
12:55 AM 62.6 °F 35.6 °F 37% 30.08 in 10.0 mi WNW 3.5 mph - N/A   Clear
1:55 AM 60.8 °F 32.0 °F 34% 30.09 in 10.0 mi North 4.6 mph - N/A   Clear
3:50 AM 59.0 °F 24.8 °F 27% 30.11 in 10.0 mi Calm Calm - N/A   Clear
4:55 AM 57.2 °F 28.4 °F 33% 30.11 in 10.0 mi NNW 4.6 mph - N/A   Clear
5:50 AM 55.4 °F 28.4 °F 36% 30.12 in 10.0 mi NNW 6.9 mph - N/A   Clear
6:46 AM 55.4 °F 28.4 °F 36% 30.14 in 10.0 mi NNW 4.6 mph - N/A   Clear
7:46 AM 59.0 °F 28.4 °F 31% 30.16 in 10.0 mi NNW 9.2 mph - N/A   Clear
8:56 AM 66.2 °F 26.6 °F 23% 30.16 in 10.0 mi NNW 9.2 mph - N/A   Clear
9:46 AM 69.8 °F 28.4 °F 21% 30.16 in 10.0 mi NW 6.9 mph - N/A   Clear
10:46 AM 75.2 °F 24.8 °F 15% 30.16 in 10.0 mi NW 9.2 mph - N/A   Clear
11:46 AM 80.6 °F 23.0 °F 12% 30.15 in 10.0 mi WNW 10.4 mph - N/A   Clear
12:46 PM 82.4 °F 23.0 °F 11% 30.13 in 10.0 mi WNW 6.9 mph - N/A   Clear
1:45 PM 84.2 °F 21.2 °F 10% 30.12 in 10.0 mi NNW 8.1 mph - N/A   Clear
2:47 PM 86.0 °F 17.6 °F 8% 30.11 in 10.0 mi NW 6.9 mph - N/A   Clear
3:45 PM 89.6 °F 21.2 °F 8% 30.09 in 10.0 mi WNW 8.1 mph - N/A   Clear
4:50 PM 89.6 °F 23.0 °F 9% 30.07 in 10.0 mi SW 5.8 mph - N/A   Clear
5:45 PM 89.6 °F - N/A% 30.06 in 10.0 mi NW 8.1 mph - N/A   Clear
7:45 PM 84.2 °F 17.6 °F 8% 30.04 in 10.0 mi Calm Calm - N/A   Clear
8:45 PM 75.2 °F 30.2 °F 19% 30.05 in 10.0 mi Calm Calm - N/A   Clear
9:45 PM 68.0 °F 35.6 °F 30% 30.06 in 10.0 mi South 5.8 mph - N/A   Clear
10:45 PM 64.4 °F 37.4 °F 37% 30.05 in 10.0 mi Calm Calm - N/A   Clear